Regional Weather Roundup
Issued by NWS

Home | Current Version | Previous Version | Graphics & Text | Print | Product List | Glossary On
Versions: 1 2 3 4 5 6 7 8 9 10 11 12 13 14 15 16 17 18 19 20 21 22 23 24 25 26 27 28 29 30 31 32 33 34 35 36 37 38 39 40 41 42 43 44 45 46 47 48 49 50
000
ASUS43 KFSD 060502
RWRSD

WEATHER ROUNDUP FOR SOUTH DAKOTA
NATIONAL WEATHER SERVICE SIOUX FALLS SD
1200 AM CDT FRI MAY 06 2016

NOTE: "FAIR" INDICATES FEW OR NO CLOUDS BELOW 12,000 FEET WITH NO
SIGNIFICANT WEATHER AND/OR OBSTRUCTIONS TO VISIBILITY.


SDZ001>005-009-010-012>017-060600-
NORTHWEST AND NORTH CENTRAL SOUTH DAKOTA

CITY           SKY/WX    TMP DP  RH WIND       PRES   REMARKS
BUFFALO          N/A     68  47  46 SW3       29.80S
FAITH            N/A     73  39  29 SE7       29.84F
MOBRIDGE       PTCLDY    64  51  62 SE9       29.79S
$$

SDZ012>016-024>037-041>051-057-063-072>074-060600-
SOUTHWEST AND SOUTH CENTRAL SOUTH DAKOTA

CITY           SKY/WX    TMP DP  RH WIND       PRES   REMARKS
RAPID CTY ARPT CLOUDY    54  44  69 CALM      29.88S
PIERRE         CLOUDY    65  50  58 S7        29.79S
CUSTER         CLOUDY    54  33  45 NW5       30.03S
ELLSWORTH AFB  CLEAR     65  44  46 SW6       29.88S
PHILIP         CLOUDY    54  51  90 W6        29.82F FOG
PINE RIDGE     CLOUDY    68  45  43 S16       29.91S
WINNER         LGT RAIN  73  46  38 S22G30    29.86S
$$

SDZ004>011-016>023-039-040-060600-
NORTHEAST SOUTH DAKOTA

CITY           SKY/WX    TMP DP  RH WIND       PRES   REMARKS
ABERDEEN       CLEAR     60  44  55 S10       29.83F
WATERTOWN      CLEAR     57  42  57 S8        29.89F
BROOKINGS      CLEAR     60  45  57 S10       29.91F
SISSETON         N/A     72  41  32 SW16      29.82F
$$

SDZ017-020-022-023-036>040-048>070-060600-
SOUTHEAST SOUTH DAKOTA

CITY           SKY/WX    TMP DP  RH WIND       PRES   REMARKS
SIOUX FALLS    CLEAR     62  44  51 S12       29.93S
HURON          CLEAR     64  46  52 S10       29.86S
MITCHELL       CLEAR     63  48  58 S9        29.89S
YANKTON        CLEAR     66  39  37 S12       29.93S
$$

ABBREVIATIONS USED IN REMARKS
   TC - TEMPERATURE IN CELSIUS
  WCI - WIND CHILL INDEX
   HX - HEAT INDEX
  VSB - VISIBILITY





USA.gov is the U.S. government's official web portal to all federal, state and local government web resources and services.